Dewpoint
32 32 33 33 49 57 65 65 65 65 65 65 64 65 66 66 66 66 66 66 65 65 65 64 64 64 64 63 61 59 58 55
40 56 59 55 35 54 64 65 65 64 64 64 63 64 64 64 65 65 65 66 65 65 64 64 64 64 64 63 62 59 57 58
53 58 58 57 46 55 64 65 65 65 64 65 63 63 63 62 63 62 64 64 64 65 64 64 64 64 63 62 60 58 55 58
55 57 57 56 57 60 64 64 65 65 63 62 61 61 60 60 60 60 61 63 63 64 64 63 63 64 63 62 61 58 55 56
53 55 57 58 60 60 62 64 64 62 62 62 62 63 62 61 60 58 58 59 60 60 61 61 61 61 61 60 60 60 58 55
51 51 57 60 60 62 61 60 60 60 60 61 60 58 57 57 57 57 56 54 55 55 57 58 58 58 58 58 57 57 58 56
51 51 52 59 60 61 61 61 59 58 59 59 59 59 57 56 55 55 54 54 54 53 54 55 55 55 55 56 57 56 56 56
51 50 49 54 59 60 60 60 59 58 57 57 57 57 55 56 56 55 53 52 51 51 52 52 53 53 54 54 55 55 55 54
51 51 50 50 55 57 59 58 57 57 57 56 56 55 55 55 54 53 52 51 50 51 51 51 51 52 52 53 53 53 53 54
50 51 51 51 51 53 57 57 56 56 55 55 54 54 54 53 52 52 51 51 50 51 51 50 50 50 50 50 50 49 50 49
49 51 52 51 51 51 52 55 55 55 52 51 50 51 52 51 50 50 49 49 49 49 49 49 48 48 48 48 47 47 47 46
48 50 52 52 51 51 51 51 52 53 51 50 51 50 50 49 49 49 49 49 49 49 48 48 47 46 46 46 46 46 46 45
48 48 52 51 51 51 50 51 51 51 51 51 51 50 49 49 48 48 48 48 48 48 47 46 46 45 45 45 44 44 44 43
50 51 52 53 53 53 53 52 51 51 50 49 49 49 49 48 48 48 47 47 47 47 46 46 45 45 44 44 44 43 42 42
47 48 48 49 51 52 52 52 51 50 50 50 49 49 49 48 48 47 47 47 46 46 46 46 45 44 43 42 42 42 41 40
44 44 45 46 47 48 48 49 50 49 49 48 48 47 48 48 47 47 47 46 46 45 45 44 44 43 42 41 41 40 39 38
35 36 36 38 40 43 44 47 48 49 49 50 50 49 47 47 47 46 46 46 45 45 44 43 42 42 40 39 40 39 37 36
29 30 31 34 36 37 37 40 44 44 44 44 45 46 47 47 48 47 46 45 45 44 44 43 42 42 39 39 38 38 35 34
26 26 26 29 32 31 33 35 37 39 39 40 42 42 44 46 47 46 46 46 44 44 44 42 42 40 38 38 36 36 35 34
Lifted_Index
5 5 5 6 6 4 1 -1 -1 -1 -1 -2 -2 -2 -2 -1 -1 -1 -1 -2 -2 -2 -2 -1 -1 -1 -1 -2 -2 -2 -2 -2
5 5 5 5 6 4 1 -1 -1 -1 -1 -2 -2 -2 -2 -1 -1 -1 -1 -1 -2 -2 -2 -2 -1 -1 -1 -2 -3 -3 -3 -2
4 4 4 5 6 4 1 -0 -1 -1 -1 -1 -2 -2 -2 -1 -1 -1 -1 -1 -2 -2 -2 -2 -2 -2 -2 -2 -3 -3 -3 -2
3 3 3 4 5 3 1 -1 -1 -1 -1 -1 -2 -2 -2 -2 -1 -1 -1 -2 -2 -2 -3 -3 -3 -2 -3 -3 -3 -3 -3 -3
2 2 3 3 3 2 0 -1 -1 -2 -2 -2 -2 -2 -3 -2 -2 -2 -2 -2 -3 -3 -3 -3 -3 -3 -3 -3 -3 -3 -3 -2
2 2 2 2 2 1 -0 -1 -1 -2 -2 -2 -2 -3 -3 -3 -2 -2 -3 -3 -3 -3 -3 -3 -3 -3 -2 -2 -2 -2 -2 -2
3 3 2 1 1 0 -0 -1 -1 -2 -2 -2 -2 -3 -3 -3 -3 -3 -3 -3 -3 -3 -2 -2 -2 -2 -2 -2 -1 -1 -1 -1
4 4 4 2 1 -0 -1 -1 -1 -1 -2 -2 -2 -2 -3 -3 -3 -2 -2 -3 -3 -2 -2 -2 -2 -1 -1 -1 -1 -0 -0 -0
4 4 4 4 2 1 0 -0 -1 -1 -1 -1 -2 -2 -2 -2 -2 -2 -2 -2 -2 -2 -1 -1 -0 -0 -0 -0 0 0 1 1
4 4 4 4 4 3 2 2 1 0 0 -0 -0 -0 -1 -1 -1 -1 -1 -1 -1 -1 -0 -0 0 0 0 1 1 1 1 1
4 4 3 3 4 4 4 3 3 2 2 2 2 2 1 1 0 1 1 1 0 0 0 0 0 0 1 1 1 2 2 2
4 3 3 3 3 4 4 3 3 3 3 3 3 3 3 2 2 2 2 2 1 1 1 1 1 1 1 2 2 3 3 3
3 3 3 3 3 3 3 3 2 2 2 2 2 3 3 3 3 3 3 3 2 2 2 2 1 1 2 3 3 3 4 3
4 3 3 3 2 2 2 2 1 1 1 1 1 2 2 3 3 3 4 4 4 4 3 3 2 2 2 3 3 3 3 3
4 4 4 3 2 2 1 1 1 1 0 0 1 1 2 2 3 3 4 4 4 4 4 4 3 3 3 3 3 3 3 3
5 5 4 3 3 2 2 1 1 1 1 1 2 2 3 3 4 4 5 5 5 5 5 4 3 3 2 2 3 3 3 3
5 5 4 4 3 3 2 2 2 3 3 4 5 5 5 5 6 6 6 5 5 5 5 4 3 2 2 2 3 3 3 3
5 5 5 4 4 5 5 6 6 7 8 9 9 9 9 8 8 7 7 6 6 5 4 3 1 1 1 2 3 3 3 3
6 5 5 5 6 7 9 10 11 11 12 12 12 12 11 10 9 8 8 7 6 5 3 2 1 0 1 1 2 3 3 3